Weather History for Perryton, TX

Change the Weather History Date:

Tuesday, February 11, 2014

  Actual Average Record
Temperature  
Mean Temperature 20 °F -  
Max Temperature 33 °F 50 °F 78 °F (1976)
Min Temperature 6 °F 19 °F -8 °F (1981)
Degree Days  
Heating Degree Days 46    
Moisture  
Dew Point 17 °F    
Average Humidity 83    
Maximum Humidity 93    
Minimum Humidity 66    
Precipitation  
Precipitation 0.00 in - - ()
Sea Level Pressure  
Sea Level Pressure 30.19 in    
Wind  
Wind Speed 2 mph (SSE)    
Max Wind Speed 10 mph    
Max Gust Speed -    
Visibility 9 miles    
Events      
Averages and records for this station are not official NWS values.
T = Trace of Precipitation, MM = Missing Value Source: NWS Daily Summary

Daily Weather History Graph

Daily Weather History Graph

Search for Another Location

Airport:

Trip Planner

Search our weather history database for the weather conditions in past years. The results will help you decide how hot, cold, wet, or windy it might be!

Date:

Astronomy

Feb. 11, 2014 Rise Set
Actual Time 7:35 AM CST 6:19 PM CST
Civil Twilight 7:08 AM CST 6:46 PM CST
Nautical Twilight 6:38 AM CST 7:16 PM CST
Astronomical Twilight 6:08 AM CST 7:46 PM CST
Moon 3:44 PM CST (2/11) 5:11 AM CST (2/11)
Length of Visible Light 11h 37m
Length of Day
10h 44m
Waxing Gibbous, 91% of the Moon is Illuminated
Feb 11
Waxing Gibbous
Feb 14
Full
Feb 22
Last Quarter
Mar 1
New
Mar 8
First Quarter

Hourly Weather History & Observations

Time (CST) Temp. Windchill Dew Point Humidity Pressure Visibility Wind Dir Wind Speed Gust Speed Precip Events Conditions
12:15 AM 16.3 °F - 13.5 °F 88% 30.28 in 10.0 mi Calm Calm - N/A   Overcast
12:35 AM 16.3 °F - 13.6 °F 89% 30.27 in 10.0 mi Calm Calm - N/A   Overcast
12:55 AM 16.3 °F - 13.1 °F 87% 30.28 in 10.0 mi Calm Calm - N/A   Overcast
1:15 AM 16.3 °F - 13.1 °F 87% 30.27 in 10.0 mi Calm Calm - N/A   Overcast
1:35 AM 16.3 °F - 13.3 °F 88% 30.26 in 10.0 mi Calm Calm - N/A   Overcast
1:55 AM 16.5 °F - 13.6 °F 88% 30.27 in 10.0 mi Calm Calm - N/A   Overcast
2:15 AM 16.7 °F - 13.6 °F 88% 30.28 in 10.0 mi Calm Calm - N/A   Overcast
2:35 AM 16.7 °F - 13.8 °F 88% 30.28 in 10.0 mi Calm Calm - N/A   Overcast
2:55 AM 17.1 °F - 14.2 °F 88% 30.27 in 10.0 mi Calm Calm - N/A   Overcast
3:15 AM 16.7 °F 11.2 °F 13.8 °F 88% 30.27 in 10.0 mi North 3.5 mph - N/A   Overcast
3:35 AM 16.5 °F - 13.6 °F 88% 30.27 in 10.0 mi Calm Calm - N/A   Overcast
3:55 AM 16.0 °F - 13.1 °F 88% 30.26 in 10.0 mi Calm Calm - N/A   Mostly Cloudy
4:15 AM 14.9 °F - 12.2 °F 89% 30.26 in 10.0 mi Calm Calm - N/A   Scattered Clouds
4:35 AM 14.5 °F - 12.2 °F 90% 30.27 in 10.0 mi Calm Calm - N/A   Clear
4:55 AM 12.6 °F - 10.4 °F 91% 30.26 in 10.0 mi Calm Calm - N/A   Clear
5:15 AM 10.8 °F - 8.6 °F 91% 30.27 in 10.0 mi Calm Calm - N/A   Clear
5:35 AM 10.0 °F - 7.5 °F 90% 30.27 in 10.0 mi Calm Calm - N/A   Clear
5:55 AM 9.3 °F - 7.0 °F 90% 30.27 in 7.0 mi Calm Calm - N/A   Clear
6:15 AM 8.6 °F - 6.3 °F 90% 30.27 in 5.0 mi Calm Calm - N/A   Clear
6:35 AM 9.0 °F - 6.6 °F 90% 30.26 in 5.0 mi Calm Calm - N/A   Clear
6:55 AM 8.4 °F - 5.7 °F 89% 30.26 in 4.0 mi Calm Calm - N/A   Clear
7:15 AM 7.7 °F - 4.8 °F 88% 30.27 in 0.5 mi Calm Calm - N/A   Unknown
7:35 AM 7.2 °F - 4.1 °F 87% 30.27 in 0.2 mi Calm Calm - N/A   Mostly Cloudy
7:55 AM 6.4 °F - 3.4 °F 87% 30.28 in 0.2 mi Calm Calm - N/A   Overcast
8:15 AM 7.5 °F - 4.6 °F 88% 30.28 in 0.2 mi Calm Calm - N/A   Overcast
8:35 AM 9.0 °F - 6.1 °F 88% 30.27 in 0.2 mi Calm Calm - N/A   Overcast
8:55 AM 11.3 °F - 8.6 °F 89% 30.26 in 3.0 mi Calm Calm - N/A   Clear
9:15 AM 13.3 °F - 10.9 °F 90% 30.26 in 5.0 mi Calm Calm - N/A   Clear
9:35 AM 14.9 °F - 12.7 °F 91% 30.27 in 5.0 mi Calm Calm - N/A   Clear
9:55 AM 16.9 °F - 15.1 °F 93% 30.26 in 7.0 mi Calm Calm - N/A   Clear
10:15 AM 18.3 °F - 16.5 °F 93% 30.27 in 10.0 mi Calm Calm - N/A   Clear
10:35 AM 19.8 °F - 18.0 °F 93% 30.27 in 10.0 mi Calm Calm - N/A   Clear
10:55 AM 20.1 °F - 18.1 °F 92% 30.27 in 10.0 mi Calm Calm - N/A   Clear
11:15 AM 21.2 °F - 18.7 °F 90% 30.27 in 10.0 mi Calm Calm - N/A   Clear
11:35 AM 22.8 °F - 18.0 °F 82% 30.25 in 10.0 mi Calm Calm - N/A   Clear
11:55 AM 24.3 °F - 17.6 °F 76% 30.25 in 10.0 mi Calm Calm - N/A   Clear
12:15 PM 25.3 °F - 18.3 °F 75% 30.24 in 10.0 mi Calm Calm - N/A   Clear
12:35 PM 26.6 °F - 19.2 °F 74% 30.22 in 10.0 mi Calm Calm - N/A   Clear
12:55 PM 27.9 °F - 20.1 °F 73% 30.21 in 10.0 mi Calm Calm - N/A   Clear
1:15 PM 28.9 °F 25.2 °F 21.2 °F 73% 30.19 in 10.0 mi SSW 3.5 mph - N/A   Clear
1:35 PM 30.0 °F 26.5 °F 21.6 °F 71% 30.17 in 10.0 mi South 3.5 mph - N/A   Clear
1:55 PM 30.9 °F 27.5 °F 22.6 °F 71% 30.15 in 10.0 mi South 3.5 mph - N/A   Clear
2:15 PM 31.6 °F 28.3 °F 23.0 °F 70% 30.14 in 10.0 mi South 3.5 mph - N/A   Clear
2:35 PM 32.0 °F 27.5 °F 23.9 °F 72% 30.12 in 10.0 mi South 4.6 mph - N/A   Clear
2:55 PM 32.2 °F 26.7 °F 23.0 °F 69% 30.12 in 10.0 mi South 5.8 mph - N/A   Clear
3:15 PM 32.9 °F 27.5 °F 23.2 °F 67% 30.11 in 10.0 mi South 5.8 mph - N/A   Clear
3:35 PM 33.3 °F 27.9 °F 23.0 °F 66% 30.10 in 10.0 mi South 5.8 mph - N/A   Clear
3:55 PM 33.8 °F 28.6 °F 23.5 °F 66% 30.10 in 10.0 mi South 5.8 mph - N/A   Clear
4:15 PM 33.8 °F 28.6 °F 24.3 °F 68% 30.09 in 10.0 mi SSE 5.8 mph - N/A   Clear
4:35 PM 33.1 °F 26.9 °F 24.6 °F 71% 30.08 in 10.0 mi SSE 6.9 mph - N/A   Clear
4:55 PM 32.2 °F 25.0 °F 24.4 °F 73% 30.07 in 10.0 mi SSE 8.1 mph - N/A   Clear
5:15 PM 32.2 °F 25.8 °F 24.6 °F 74% 30.07 in 10.0 mi SSE 6.9 mph - N/A   Clear
5:35 PM 31.1 °F 23.1 °F 24.1 °F 75% 30.07 in 10.0 mi SE 9.2 mph - N/A   Clear
5:55 PM 30.4 °F 23.6 °F 23.9 °F 77% 30.08 in 10.0 mi SE 6.9 mph - N/A   Clear
6:15 PM 29.3 °F 21.5 °F 23.7 °F 80% 30.07 in 10.0 mi SE 8.1 mph - N/A   Clear
6:35 PM 28.4 °F 20.4 °F 23.4 °F 81% 30.07 in 10.0 mi SE 8.1 mph - N/A   Clear
6:55 PM 28.4 °F 20.4 °F 23.5 °F 82% 30.08 in 10.0 mi SSE 8.1 mph - N/A   Clear
7:15 PM 28.0 °F 20.0 °F 23.7 °F 84% 30.08 in 10.0 mi SSE 8.1 mph - N/A   Clear
7:35 PM 28.0 °F 20.0 °F 23.7 °F 84% 30.08 in 10.0 mi SSE 8.1 mph - N/A   Clear
7:55 PM 27.5 °F 19.3 °F 23.5 °F 85% 30.08 in 10.0 mi SSE 8.1 mph - N/A   Clear
8:15 PM 26.8 °F 18.5 °F 22.8 °F 85% 30.09 in 10.0 mi SSE 8.1 mph - N/A   Clear
8:35 PM 26.4 °F 18.0 °F 22.8 °F 86% 30.09 in 10.0 mi SSE 8.1 mph - N/A   Clear
8:55 PM 26.6 °F 18.2 °F 23.0 °F 86% 30.10 in 10.0 mi SSE 8.1 mph - N/A   Clear
9:15 PM 27.0 °F 17.3 °F 23.0 °F 85% 30.09 in 10.0 mi South 10.4 mph - N/A   Clear
9:35 PM 26.6 °F 17.5 °F 22.6 °F 85% 30.10 in 10.0 mi South 9.2 mph - N/A   Clear
9:55 PM 26.4 °F 17.3 °F 22.3 °F 84% 30.10 in 10.0 mi South 9.2 mph - N/A   Clear
10:15 PM 25.3 °F 16.0 °F 21.4 °F 85% 30.09 in 10.0 mi South 9.2 mph - N/A   Clear
10:35 PM 25.0 °F 14.8 °F 21.0 °F 85% 30.07 in 10.0 mi South 10.4 mph - N/A   Clear
10:55 PM 24.8 °F 14.6 °F 20.7 °F 84% 30.06 in 10.0 mi SSE 10.4 mph - N/A   Clear
11:15 PM 24.1 °F 13.7 °F 20.3 °F 85% 30.05 in 10.0 mi South 10.4 mph - N/A   Clear
11:35 PM 23.9 °F 14.2 °F 20.3 °F 86% 30.05 in 10.0 mi South 9.2 mph - N/A   Clear
11:55 PM 23.5 °F 13.7 °F 20.1 °F 87% 30.04 in 10.0 mi South 9.2 mph - N/A   Clear